2019 TS
ephemeris date magn radius delta ra dec elong phase
Today5 Sep 202629.71.904 AU1.849 AU15h49m-19°38'77.4°31.1°
2019 TS - 2026-09-05
astro.vanbuitenen.nl


 
-1 year
-1 month
-1 day
Now
+1 day
+1 month
+1 year

The interactive orbit chart above shows the body's path through the solar system and its position at the given date. Green and blue lines are shown perpendicular to the ecliptic plane: Green if the path is above the ecliptic plane, blue if it is below. (Left-click and drag to rotate the view; Right-click and drag to move the view; Use scroll wheel to zoom in our out.)

The orbital elements of 2019 TS are:

            e (Eccentricity)                : 0.3803268
            a (Semimajor axis)              : 1.5094899
            i (Inclination)                 : 0.52860
            Ω (Longitude of ascending node) : 140.72521
            ω (Argument of perihelion)      : 277.73847
            M (Mean anomaly)                : 195.68632
            Epoch                           : 2026 Jun 09

            L (Longitude of perihelion)     : 58.46401
            B (Latitude of perihelion)      : -0.52379
            P (Orbital period in years)     : 1.85            
        

The light curve chart below shows the estimated development of the minor planet's magnitude.


The all-sky chart below shows the path of the minor planet over the same period as the light curve. The current position is marked yellow.





The following chart shows the path of the minor planet in the next few days. The field of view is optimized for (~10x50) binoculars and finderscopes.




Ephemerides:
Date       Time       RA (2000)    DEC (2000)    delta   radius  elong  phase   PA    magn
2026-09-05 00:00 UT   15 49 43.4   -19 38 39     1.849    1.904   77.4   31.1   102   29.7 
2026-09-05 19:11 UT   15 50 52.3   -19 42 24     1.856    1.901   76.9   31.1   102   29.7 
2026-09-06 00:00 UT   15 51 09.7   -19 43 21     1.858    1.901   76.8   31.1   102   29.7 
2026-09-07 00:00 UT   15 52 37.1   -19 48 04     1.866    1.898   76.2   31.0   102   29.7 
2026-09-08 00:00 UT   15 54 05.7   -19 52 47     1.875    1.895   75.6   31.0   102   29.7 
2026-09-09 00:00 UT   15 55 35.4   -19 57 30     1.883    1.891   75.0   31.0   102   29.7 
2026-09-10 00:00 UT   15 57 06.2   -20 02 13     1.891    1.888   74.4   30.9   102   29.7 
2026-09-11 00:00 UT   15 58 38.1   -20 06 56     1.900    1.885   73.8   30.9   101   29.7 
2026-09-12 00:00 UT   16 00 11.1   -20 11 39     1.908    1.882   73.2   30.8   101   29.7 
2026-09-13 00:00 UT   16 01 45.2   -20 16 21     1.916    1.878   72.6   30.7   101   29.7 
2026-09-14 00:00 UT   16 03 20.4   -20 21 03     1.924    1.875   72.0   30.7   101   29.7 
2026-09-15 00:00 UT   16 04 56.7   -20 25 43     1.932    1.872   71.4   30.6   101   29.7 
2026-09-16 00:00 UT   16 06 34.0   -20 30 23     1.940    1.868   70.8   30.5   101   29.7 
2026-09-17 00:00 UT   16 08 12.3   -20 35 02     1.948    1.865   70.2   30.5   101   29.7 
2026-09-18 00:00 UT   16 09 51.7   -20 39 40     1.956    1.862   69.6   30.4   100   29.7 
2026-09-19 00:00 UT   16 11 32.1   -20 44 16     1.963    1.858   69.1   30.3   100   29.7 
2026-09-20 00:00 UT   16 13 13.5   -20 48 51     1.971    1.855   68.5   30.2   100   29.7 
2026-09-21 00:00 UT   16 14 55.9   -20 53 24     1.978    1.851   67.9   30.2   100   29.7 
2026-09-22 00:00 UT   16 16 39.3   -20 57 56     1.986    1.848   67.3   30.1   100   29.7 
2026-09-23 00:00 UT   16 18 23.7   -21 02 25     1.993    1.844   66.8   30.0   100   29.7 
2026-09-24 00:00 UT   16 20 09.1   -21 06 52     2.000    1.841   66.2   29.9   100   29.7 
2026-09-25 00:00 UT   16 21 55.5   -21 11 18     2.007    1.837   65.7   29.8    99   29.7 
2026-09-26 00:00 UT   16 23 42.8   -21 15 40     2.014    1.834   65.1   29.7    99   29.7 


    Terminology:
            
    delta:  distance between minor planet and earth in AU
    radius: distance between minor planet and sun in AU
    magn:   magnitude (brightness) estimate    
    ra:     right ascension in hours (24h = 360deg)
    dec:    declination in degrees
    elong:  elongation in degrees (angle sun-earth-minor planet)    
    phase:  phase angle in degrees (angle sun-minor planet-earth)        
    AU:     Astronomical Unit (mean distance between earth and sun: 149597870.7 km
    

Orbital elements provided by the MPC (Minor Planet Center).
Calculations by a modified version of AAPlus, a C# implementation of the AA+ project by PJ Naughter from the algorithms presented in the book "Astronomical Algorithms" by Jean Meeus.
NGC2000 dso catalog and star labels from VizieR as provided by the Strasbourg astronomical Data Center.
Tycho2 catalog from the ESO archive.